Moncks Corner, SC

2:29 PM EDT on October 21, 2017 (GMT -0400)
Moncks Corner

Weather History for KMKS - February, 2013

Change the Weather History Date:

Monday, February 18, 2013

  Actual Average (KCHS) Record (KCHS)
Temperature  
Mean Temperature 42 °F -  
Max Temperature 57 °F 59 °F 83 °F (1956)
Min Temperature 26 °F 40 °F 14 °F (1958)
Degree Days  
Heating Degree Days 24    
Moisture  
Dew Point 24 °F    
Average Humidity 56    
Maximum Humidity 87    
Minimum Humidity 23    
Precipitation  
Precipitation 0.00 in - - ()
Sea Level Pressure  
Sea Level Pressure 30.36 in    
Wind  
Wind Speed 2 mph (SSE)    
Max Wind Speed 10 mph    
Max Gust Speed -    
Visibility 8 miles    
Events      
Averages and records for this station are not official NWS values.
T = Trace of Precipitation, MM = Missing Value Source: NWS Daily Summary

Daily Weather History Graph

Daily Weather History Graph

Search for Another Location

Airport or City:

Trip Planner

Search our weather history database for the weather conditions in past years. The results will help you decide how hot, cold, wet, or windy it might be!

Date:

Astronomy

Feb. 18, 2013 Rise Set
Actual Time 7:00 AM EST 6:08 PM EST
Civil Twilight 6:35 AM EST 6:33 PM EST
Nautical Twilight 6:06 AM EST 7:02 PM EST
Astronomical Twilight 5:37 AM EST 7:30 PM EST
Moon 12:01 PM EST (2/18) 1:30 AM EST (2/18)
Length of Visible Light 11h 57m
Length of Day
11h 07m
First Quarter, 58% of the Moon is Illuminated
Feb 18
First Quarter
Feb 25
Full
Mar 4
Last Quarter
Mar 11
New
Mar 19
First Quarter

Hourly Weather History & Observations

Time (EST) Temp. Windchill Dew Point Humidity Pressure Visibility Wind Dir Wind Speed Gust Speed Precip Events Conditions
12:15 AM 30.2 °F - 24.8 °F 80% 30.32 in 10.0 mi Calm Calm - N/A   Clear
12:35 AM 30.2 °F - 24.8 °F 80% 30.32 in 10.0 mi Calm Calm - N/A   Clear
12:55 AM 30.2 °F - 24.8 °F 80% 30.32 in 7.0 mi Calm Calm - N/A   Clear
1:15 AM 30.2 °F - 24.8 °F 80% 30.33 in 7.0 mi Calm Calm - N/A   Clear
1:35 AM 30.2 °F - 24.8 °F 80% 30.33 in 10.0 mi Calm Calm - N/A   Clear
2:15 AM 32.0 °F - 21.2 °F 64% 30.34 in 7.0 mi Calm Calm - N/A   Clear
2:35 AM 33.8 °F - 19.4 °F 56% 30.34 in 10.0 mi Calm Calm - N/A   Clear
2:55 AM 32.0 °F 28.7 °F 21.2 °F 64% 30.34 in 10.0 mi WSW 3.5 mph - N/A   Clear
3:15 AM 32.0 °F - 21.2 °F 64% 30.34 in 7.0 mi Calm Calm - N/A   Clear
3:35 AM 32.0 °F 28.7 °F 21.2 °F 64% 30.35 in 7.0 mi WSW 3.5 mph - N/A   Clear
3:55 AM 33.8 °F - 21.2 °F 60% 30.34 in 7.0 mi Calm Calm - N/A   Clear
4:15 AM 32.0 °F - 21.2 °F 64% 30.34 in 10.0 mi Calm Calm - N/A   Clear
4:35 AM 32.0 °F - 21.2 °F 64% 30.35 in 10.0 mi Calm Calm - N/A   Clear
4:55 AM 30.2 °F - 21.2 °F 69% 30.36 in 10.0 mi Calm Calm - N/A   Clear
5:15 AM 30.2 °F - 21.2 °F 69% 30.36 in 7.0 mi Calm Calm - N/A   Clear
5:35 AM 30.2 °F - 23.0 °F 75% 30.36 in 7.0 mi Calm Calm - N/A   Clear
5:55 AM 28.4 °F - 23.0 °F 80% 30.37 in 5.0 mi Calm Calm - N/A   Haze
6:15 AM 30.2 °F - 21.2 °F 69% 30.38 in 10.0 mi Calm Calm - N/A   Clear
6:35 AM 28.4 °F - 23.0 °F 80% 30.38 in 10.0 mi Calm Calm - N/A   Clear
6:55 AM 28.4 °F - 23.0 °F 80% 30.38 in 7.0 mi Calm Calm - N/A   Clear
7:15 AM 26.6 °F - 23.0 °F 86% 30.39 in 7.0 mi Calm Calm - N/A   Clear
7:35 AM 28.4 °F - 23.0 °F 80% 30.40 in 7.0 mi Calm Calm - N/A   Clear
7:55 AM 30.2 °F - 24.8 °F 80% 30.41 in 7.0 mi Calm Calm - N/A   Clear
8:15 AM 32.0 °F - 26.6 °F 80% 30.41 in 7.0 mi Calm Calm - N/A   Clear
8:35 AM 35.6 °F - 26.6 °F 70% 30.42 in 7.0 mi Calm Calm - N/A   Clear
8:55 AM 39.2 °F - 28.4 °F 65% 30.42 in 10.0 mi Calm Calm - N/A   Clear
9:15 AM 42.8 °F - 30.2 °F 61% 30.42 in 10.0 mi Calm Calm - N/A   Clear
9:35 AM 44.6 °F 43.1 °F 21.2 °F 39% 30.42 in 10.0 mi East 3.5 mph - N/A   Clear
9:55 AM 48.2 °F - 23.0 °F 37% 30.43 in 7.0 mi SE 4.6 mph - N/A   Clear
10:15 AM 48.2 °F - 19.4 °F 32% 30.43 in 7.0 mi East 4.6 mph - N/A   Clear
10:35 AM 50.0 °F - 17.6 °F 28% 30.43 in 10.0 mi Calm Calm - N/A   Clear
10:55 AM 50.0 °F - 15.8 °F 26% 30.43 in 7.0 mi ESE 3.5 mph - N/A   Clear
11:15 AM 51.8 °F - 15.8 °F 24% 30.43 in 7.0 mi ENE 3.5 mph - N/A   Clear
11:35 AM 51.8 °F - 15.8 °F 24% 30.42 in 7.0 mi Calm Calm - N/A   Clear
11:55 AM 53.6 °F - 17.6 °F 24% 30.42 in 7.0 mi NE 4.6 mph - N/A   Clear
12:15 PM 53.6 °F - 19.4 °F 26% 30.41 in 10.0 mi NNE 3.5 mph - N/A   Clear
12:35 PM 53.6 °F - 19.4 °F 26% 30.41 in 10.0 mi NW 3.5 mph - N/A   Clear
1:15 PM 55.4 °F - 19.4 °F 25% 30.39 in 7.0 mi West 3.5 mph - N/A   Clear
1:35 PM 55.4 °F - 19.4 °F 25% 30.38 in 10.0 mi South 9.2 mph - N/A   Clear
1:55 PM 57.2 °F - 19.4 °F 23% 30.37 in 10.0 mi ESE 5.8 mph - N/A   Clear
2:15 PM 57.2 °F - 19.4 °F 23% 30.37 in 7.0 mi SSE 5.8 mph - N/A   Clear
2:35 PM 57.2 °F - 19.4 °F 23% 30.36 in 7.0 mi ESE 4.6 mph - N/A   Clear
2:55 PM 57.2 °F - 21.2 °F 25% 30.35 in 10.0 mi South 9.2 mph - N/A   Clear
3:15 PM 57.2 °F - 23.0 °F 27% 30.35 in 7.0 mi South 10.4 mph - N/A   Clear
3:35 PM 55.4 °F - 23.0 °F 29% 30.36 in 10.0 mi SSE 6.9 mph - N/A   Clear
3:55 PM 55.4 °F - 23.0 °F 29% 30.35 in 10.0 mi South 5.8 mph - N/A   Clear
4:15 PM 55.4 °F - 23.0 °F 29% 30.35 in 10.0 mi South 8.1 mph - N/A   Clear
4:35 PM 55.4 °F - 23.0 °F 29% 30.35 in 7.0 mi SSE 8.1 mph - N/A   Clear
4:55 PM 53.6 °F - 23.0 °F 30% 30.35 in 7.0 mi South 8.1 mph - N/A   Clear
5:15 PM 53.6 °F - 24.8 °F 33% 30.35 in 10.0 mi South 6.9 mph - N/A   Clear
5:35 PM 51.8 °F - 23.0 °F 33% 30.36 in 10.0 mi South 6.9 mph - N/A   Clear
5:55 PM 50.0 °F - 23.0 °F 35% 30.36 in 10.0 mi South 8.1 mph - N/A   Clear
6:15 PM 48.2 °F - 24.8 °F 40% 30.36 in 7.0 mi South 4.6 mph - N/A   Clear
6:35 PM 48.2 °F - 26.6 °F 43% 30.36 in 10.0 mi South 3.5 mph - N/A   Clear
6:55 PM 46.4 °F 45.2 °F 26.6 °F 46% 30.35 in 10.0 mi SSE 3.5 mph - N/A   Clear
7:15 PM 42.8 °F - 28.4 °F 57% 30.35 in 10.0 mi Calm Calm - N/A   Clear
7:55 PM 41.0 °F - 30.2 °F 65% 30.35 in 10.0 mi Calm Calm - N/A   Clear
8:15 PM 39.2 °F - 30.2 °F 70% 30.34 in 7.0 mi Calm Calm - N/A   Clear
8:35 PM 39.2 °F - 30.2 °F 70% 30.34 in 10.0 mi Calm Calm - N/A   Clear
8:55 PM 37.4 °F - 30.2 °F 75% 30.34 in 10.0 mi Calm Calm - N/A   Clear
9:15 PM 37.4 °F - 30.2 °F 75% 30.33 in 7.0 mi Calm Calm - N/A   Clear
9:35 PM 37.4 °F - 30.2 °F 75% 30.32 in 7.0 mi Calm Calm - N/A   Clear
9:55 PM 35.6 °F - 32.0 °F 87% 30.31 in 7.0 mi Calm Calm - N/A   Clear
10:15 PM 35.6 °F - 30.2 °F 81% 30.31 in 7.0 mi Calm Calm - N/A   Clear
10:35 PM 35.6 °F - 32.0 °F 87% 30.30 in 7.0 mi Calm Calm - N/A   Clear
10:55 PM 35.6 °F - 32.0 °F 87% 30.29 in 7.0 mi Calm Calm - N/A   Clear
11:15 PM 35.6 °F - 32.0 °F 87% 30.29 in 7.0 mi Calm Calm - N/A   Clear
11:35 PM 35.6 °F - 32.0 °F 87% 30.28 in 7.0 mi Calm Calm - N/A   Clear
11:55 PM 35.6 °F - 32.0 °F 87% 30.29 in 7.0 mi Calm Calm - N/A   Clear